Details From TNCM - St Maarten - Princess Juliana Intl
To GOOY - Dakar Leopold Sedar Senghor Intl
Flight Number -
Tags Standard
Created
Modified
Stats Distance 2,622 nm / 4,857 km
Max Altitude 0 ft / 0 m
Waypoints 8
Social Downloads 11
Likes 0
Share

Download

Looking for another format? Having issues loading an existing format? Contact us
Advertisement - Login to hide

Notes

Dep rwy 09 - Arr rwy 36 (after waypoint fix INIRO ak for ILS approach

Route

+18.042_-063.114 LAMKN EGIBO PAKER KENOX UNOSU BOTNO INIRO

ID Type Via Altitude (ft/m) Position (lat/lon) Dist (leg/tot) Name
O +18.042_-063.114 LATLON - 0 / 0 18.04200 / -63.11400 - / 0 nm
LAMKN FIX - 0 / 0 18.00000 / -61.96600 65 / 65 nm
EGIBO FIX - 0 / 0 17.00000 / -50.00000 687 / 753 nm
PAKER FIX - 0 / 0 15.33333 / -40.00000 585 / 1338 nm
KENOX FIX - 0 / 0 14.81000 / -28.49167 668 / 2006 nm
UNOSU FIX - 0 / 0 14.48000 / -24.05472 258 / 2265 nm
BOTNO FIX - 0 / 0 13.50000 / -23.24167 75 / 2341 nm
O INIRO FIX - 0 / 0 13.33194 / -18.42778 281 / 2622 nm

Altitude Profile

Advertisement - Login to hide

Weather


0- 5 10 15 20 25 30 35+ Temperature / °C

Clouds and Precipitation
Forecast for 2021-11-29 18:00 UTC. Updated 3 hours ago

Ground ~20,000 ft ~40,000 ft Winds

TNCM

Details ICAO TNCM (SXM)
Name Princess Juliana Intl
Region Caribbean Netherlands, Aruba, Curaçao, Sint Maarten
Timezone Unknown
Stats Elevation 14 ft / 4 m (AMSL)
Location 18.040900° -63.108900°
Runways 1
Magnetic Variation 14.433° W

METAR

TNCM 291800Z 12011KT 9999 SCT018 31/24 Q1014 NOSIG

Decode

TAF

TAF TNCM 291732Z 2918/3018 09010KT P6SM VCSH SCT018

Decode

Departure Runways

ID Width Length Bearing (true/mag) Surface Threshold Overrun Markings Lighting
10 148 ft / 45 m 7,553 ft / 2,302 m 81.44° / 95.87° ASPHALT 331 ft / 101 m 164 ft / 50 m PREC-APP EDGE THRESHOLD REIL-OMNI
28 148 ft / 45 m 7,553 ft / 2,302 m 261.45° / 275.88° ASPHALT 0 ft / 0 m 200 ft / 61 m APP EDGE THRESHOLD

GOOY

Details ICAO GOOY (DKR)
Name Dakar - Leopold Sedar Senghor Intl
Region Senegal
Timezone Africa/Dakar (UTC+0.0)
Stats Elevation 84 ft / 26 m (AMSL)
Location 14.740100° -17.490400°
Runways 2
Magnetic Variation 6.900° W

METAR

GOOY 291800Z 36012KT 8000 NSC 25/18 Q1012

Decode

TAF

TAF GOOY 291700Z 2918/3024 02012KT 8000 NSC= TAF GOBD 291700Z 2918/3024 36016KT 6000 NSC BECMG 3003/3005 4000 DU

Decode

Destination Runways

ID Width Length Bearing (true/mag) Surface Threshold Overrun Markings Lighting
03 98 ft / 30 m 4,916 ft / 1,498 m 22.33° / 29.23° ASPHALT 0 ft / 0 m 98 ft / 30 m APP
18 148 ft / 45 m 11,483 ft / 3,500 m 172.61° / 179.51° ASPHALT 525 ft / 160 m 220 ft / 67 m APP EDGE THRESHOLD
21 98 ft / 30 m 4,916 ft / 1,498 m 202.33° / 209.23° ASPHALT 0 ft / 0 m 1,591 ft / 485 m APP
36 148 ft / 45 m 11,483 ft / 3,500 m 352.61° / 359.51° ASPHALT 0 ft / 0 m 213 ft / 65 m PREC-APP EDGE THRESHOLD ALSF-I

Approach Navaids

Runway Type Ident Frequency Range Bearing (true/mag) Slope Elevation
36 GS YF 110.30 MHz 10 nm / 19 km 353.14° / 0.04 ° 3.01° 73 ft / 22 m (AMSL)
36 MM MM - - 352.57° / 359.47 ° - 144 ft / 44 m (AMSL)
36 DME YF 110.30 MHz 18 nm / 33 km - - 73 ft / 22 m (AMSL)
36 LOC-ILS YF 110.30 MHz 18 nm / 33 km 352.33° / 359.23 ° - 65 ft / 20 m (AMSL)

Popular Alternatives